Weather History for Shelbyville, IN

Change the Weather History Date:

Saturday, January 19, 2013

  Actual Average Record
Temperature  
Mean Temperature 45 °F 29 °F  
Max Temperature 56 °F 36 °F 56 °F (2013)
Min Temperature 34 °F 21 °F 3 °F (2003)
Degree Days  
Heating Degree Days 20 36  
Month to date heating degree days 613 684  
Since 1 July heating degree days 2485 2788  
Cooling Degree Days 0 0  
Month to date cooling degree days 0 0  
Year to date cooling degree days 0 0  
Moisture  
Dew Point 29 °F    
Average Humidity 54    
Maximum Humidity 70    
Minimum Humidity 38    
Precipitation  
Precipitation 0.00 in 0.08 in 0.30 in (2000)
Month to date precipitation 2.80 1.72  
Year to date precipitation 2.80 1.72  
Sea Level Pressure  
Sea Level Pressure 30.02 in    
Wind  
Wind Speed 15 mph (SSW)    
Max Wind Speed 26 mph    
Max Gust Speed 33 mph    
Visibility 10 miles    
Events      
T = Trace of Precipitation, MM = Missing Value Source: NWS Daily Summary

Daily Weather History Graph

Daily Weather History Graph

Search for Another Location

Airport:

Trip Planner

Search our weather history database for the weather conditions in past years. The results will help you decide how hot, cold, wet, or windy it might be!

Date:

Astronomy

Jan. 19, 2013 Rise Set
Actual Time 8:00 AM EST 5:48 PM EST
Civil Twilight 7:30 AM EST 6:17 PM EST
Nautical Twilight 6:57 AM EST 6:50 PM EST
Astronomical Twilight 6:25 AM EST 7:22 PM EST
Moon 12:13 PM EST (1/19) 1:34 AM EST (1/19)
Length of Visible Light 10h 46m
Length of Day
9h 48m
First Quarter, 57% of the Moon is Illuminated
Jan 19
First Quarter
Jan 26
Full
Feb 3
Last Quarter
Feb 10
New
Feb 17
First Quarter

Hourly Weather History & Observations

Time (EST) Temp. Windchill Dew Point Humidity Pressure Visibility Wind Dir Wind Speed Gust Speed Precip Events Conditions
12:53 AM 37.0 °F 27.7 °F 26.1 °F 65% 30.16 in 10.0 mi South 16.1 mph - N/A   Clear
1:53 AM 36.0 °F 27.5 °F 26.1 °F 67% 30.16 in 10.0 mi South 12.7 mph - N/A   Clear
2:53 AM 35.1 °F 28.6 °F 25.0 °F 67% 30.17 in 10.0 mi South 8.1 mph - N/A   Clear
3:53 AM 35.1 °F 28.6 °F 23.0 °F 61% 30.16 in 10.0 mi South 8.1 mph - N/A   Clear
4:53 AM 37.9 °F 30.5 °F 23.0 °F 55% 30.15 in 10.0 mi SW 11.5 mph - N/A   Clear
5:53 AM 39.0 °F 31.0 °F 23.0 °F 53% 30.14 in 10.0 mi SSW 13.8 mph - N/A   Clear
6:53 AM 39.0 °F 32.8 °F 24.1 °F 55% 30.13 in 10.0 mi South 9.2 mph - N/A   Clear
7:53 AM 37.0 °F 29.8 °F 24.1 °F 59% 30.12 in 10.0 mi South 10.4 mph - N/A   Clear
8:53 AM 37.9 °F 30.0 °F 25.0 °F 60% 30.11 in 10.0 mi South 12.7 mph - N/A   Clear
9:53 AM 42.1 °F 35.7 °F 26.1 °F 53% 30.11 in 10.0 mi South 11.5 mph - N/A   Clear
10:53 AM 46.9 °F - 28.0 °F 48% 30.10 in 10.0 mi SSW 11.5 mph 19.6 mph N/A   Clear
11:53 AM 50.0 °F - 28.0 °F 43% 30.05 in 10.0 mi SW 18.4 mph - N/A   Clear
12:53 PM 52.0 °F - 28.9 °F 41% 29.99 in 10.0 mi SSW 20.7 mph 28.8 mph N/A   Clear
1:53 PM 55.0 °F - 30.0 °F 38% 29.96 in 10.0 mi SSW 19.6 mph 32.2 mph N/A   Clear
2:53 PM 55.9 °F - 33.1 °F 42% 29.92 in 10.0 mi SSW 21.9 mph 28.8 mph N/A   Clear
3:53 PM 54.0 °F - 33.1 °F 45% 29.89 in 10.0 mi SSW 18.4 mph 26.5 mph N/A   Clear
4:53 PM 53.1 °F - 33.1 °F 47% 29.87 in 10.0 mi SSW 21.9 mph 28.8 mph N/A   Clear
5:53 PM 50.0 °F - 33.1 °F 52% 29.90 in 10.0 mi SW 13.8 mph - N/A   Clear
6:53 PM 48.9 °F - 32.0 °F 52% 29.90 in 10.0 mi SSW 15.0 mph - N/A   Clear
7:53 PM 48.0 °F - 32.0 °F 54% 29.90 in 10.0 mi SSW 16.1 mph - N/A   Clear
8:53 PM 48.9 °F - 33.1 °F 54% 29.90 in 10.0 mi SW 18.4 mph 26.5 mph N/A   Clear
9:53 PM 48.0 °F - 34.0 °F 58% 29.91 in 10.0 mi WSW 15.0 mph - N/A   Clear
10:53 PM 46.9 °F - 35.1 °F 63% 29.91 in 10.0 mi WSW 13.8 mph - N/A   Clear
11:53 PM 46.9 °F - 36.0 °F 66% 29.92 in 10.0 mi WSW 12.7 mph - N/A   Clear